| time (UTC) | temp C | wind direction | speed KPH | gust KPH | rain 1hr cm | rain 24hr cm | rain mn cm | humidity % | barometer mb |
| 20260906091358 | 28 | 56 | 9.7 | 11.3 | 0.00 | 0.00 | 0.00 | 46 | 1023.3 |
| 20260906090858 | 28 | 65 | 4.8 | 9.7 | 0.00 | 0.00 | 0.00 | 46 | 1023.3 |
| 20260906090358 | 27 | 72 | 6.4 | 11.3 | 0.00 | 0.00 | 0.00 | 48 | 1023.3 |
| 20260906085858 | 27 | 61 | 8.0 | 12.9 | 0.00 | 0.00 | 0.00 | 48 | 1023.3 |
| 20260906085358 | 27 | 69 | 8.0 | 14.5 | 0.00 | 0.00 | 0.00 | 48 | 1023.2 |
| 20260906084858 | 27 | 62 | 6.4 | 11.3 | 0.00 | 0.00 | 0.00 | 49 | 1023.2 |
| 20260906084358 | 27 | 63 | 6.4 | 8.0 | 0.00 | 0.00 | 0.00 | 49 | 1023.3 |
| 20260906083858 | 27 | 67 | 8.0 | 12.9 | 0.00 | 0.00 | 0.00 | 50 | 1023.3 |
| 20260906083358 | 27 | 53 | 6.4 | 9.7 | 0.00 | 0.00 | 0.00 | 49 | 1023.4 |
| 20260906082859 | 27 | 61 | 8.0 | 14.5 | 0.00 | 0.00 | 0.00 | 50 | 1023.2 |
| 20260906082359 | 27 | 63 | 8.0 | 9.7 | 0.00 | 0.00 | 0.00 | 49 | 1023.2 |
| 20260906081859 | 27 | 61 | 8.0 | 11.3 | 0.00 | 0.00 | 0.00 | 50 | 1023.2 |
| 20260906081359 | 27 | 73 | 4.8 | 8.0 | 0.00 | 0.00 | 0.00 | 51 | 1023.2 |
| 20260906080859 | 27 | 56 | 8.0 | 14.5 | 0.00 | 0.00 | 0.00 | 51 | 1023.2 |
| 20260906080359 | 27 | 76 | 8.0 | 16.1 | 0.00 | 0.00 | 0.00 | 52 | 1023.1 |
| 20260906075859 | 26 | 61 | 8.0 | 11.3 | 0.00 | 0.00 | 0.00 | 53 | 1023.1 |
| 20260906075359 | 26 | 65 | 6.4 | 8.0 | 0.00 | 0.00 | 0.00 | 54 | 1023.0 |
| 20260906074859 | 26 | 62 | 11.3 | 17.7 | 0.00 | 0.00 | 0.00 | 54 | 1023.0 |
| 20260906074359 | 26 | 62 | 8.0 | 12.9 | 0.00 | 0.00 | 0.00 | 54 | 1023.0 |
| 20260906073859 | 26 | 58 | 8.0 | 12.9 | 0.00 | 0.00 | 0.00 | 56 | 1023.0 |
| 20260906073400 | 26 | 64 | 8.0 | 12.9 | 0.00 | 0.00 | 0.00 | 57 | 1023.0 |
| 20260906072900 | 26 | 59 | 6.4 | 12.9 | 0.00 | 0.00 | 0.00 | 56 | 1022.9 |
| 20260906072400 | 26 | 57 | 9.7 | 14.5 | 0.00 | 0.00 | 0.00 | 57 | 1023.0 |
| 20260906071900 | 25 | 56 | 8.0 | 14.5 | 0.00 | 0.00 | 0.00 | 57 | 1022.9 |
| 20260906071400 | 25 | 63 | 9.7 | 12.9 | 0.00 | 0.00 | 0.00 | 58 | 1022.9 |
| 20260906070900 | 26 | 36 | 6.4 | 11.3 | 0.00 | 0.00 | 0.00 | 58 | 1022.9 |
| 20260906070400 | 25 | 62 | 6.4 | 11.3 | 0.00 | 0.00 | 0.00 | 59 | 1022.8 |
| 20260906065900 | 25 | 52 | 4.8 | 11.3 | 0.00 | 0.00 | 0.00 | 60 | 1022.7 |
| 20260906065400 | 25 | 64 | 6.4 | 14.5 | 0.00 | 0.00 | 0.00 | 60 | 1022.7 |
| 20260906064900 | 25 | 63 | 3.2 | 4.8 | 0.00 | 0.00 | 0.00 | 61 | 1022.7 |
| 20260906064400 | 25 | 63 | 6.4 | 12.9 | 0.00 | 0.00 | 0.00 | 63 | 1022.7 |
| 20260906063901 | 25 | 49 | 1.6 | 3.2 | 0.00 | 0.00 | 0.00 | 64 | 1022.7 |
| 20260906063400 | 25 | 43 | 3.2 | 8.0 | 0.00 | 0.00 | 0.00 | 65 | 1022.6 |
| 20260906062900 | 25 | 46 | 3.2 | 4.8 | 0.00 | 0.00 | 0.00 | 64 | 1022.6 |
| 20260906062401 | 25 | 335 | 1.6 | 4.8 | 0.00 | 0.00 | 0.00 | 65 | 1022.5 |
| 20260906061901 | 25 | 40 | 1.6 | 4.8 | 0.00 | 0.00 | 0.00 | 65 | 1022.5 |
| 20260906061401 | 25 | 65 | 0.0 | 1.6 | 0.00 | 0.00 | 0.00 | 65 | 1022.4 |
| 20260906060901 | 25 | 66 | 1.6 | 6.4 | 0.00 | 0.00 | 0.00 | 66 | 1022.3 |
| 20260906060401 | 25 | 60 | 4.8 | 8.0 | 0.00 | 0.00 | 0.00 | 67 | 1022.3 |
| 20260906055901 | 25 | 65 | 1.6 | 4.8 | 0.00 | 0.00 | 0.00 | 67 | 1022.2 |
| 20260906055401 | 25 | 41 | 3.2 | 4.8 | 0.00 | 0.00 | 0.00 | 69 | 1022.2 |
| 20260906054901 | 24 | 74 | 1.6 | 4.8 | 0.00 | 0.00 | 0.00 | 69 | 1022.1 |
| 20260906054402 | 24 | 78 | 1.6 | 4.8 | 0.00 | 0.00 | 0.00 | 70 | 1022.0 |
| 20260906053902 | 23 | 73 | 1.6 | 6.4 | 0.00 | 0.00 | 0.00 | 71 | 1021.9 |
| 20260906053401 | 23 | 75 | 3.2 | 4.8 | 0.00 | 0.00 | 0.00 | 71 | 1021.9 |
| 20260906052901 | 23 | 60 | 1.6 | 3.2 | 0.00 | 0.00 | 0.00 | 72 | 1021.8 |
| 20260906052402 | 23 | 61 | 0.0 | 1.6 | 0.00 | 0.00 | 0.00 | 73 | 1021.8 |
| 20260906051902 | 23 | 343 | 1.6 | 3.2 | 0.00 | 0.00 | 0.00 | 73 | 1021.7 |
| 20260906051402 | 22 | 59 | 3.2 | 4.8 | 0.00 | 0.00 | 0.00 | 75 | 1021.6 |
| 20260906050902 | 22 | 68 | 3.2 | 3.2 | 0.00 | 0.00 | 0.00 | 77 | 1021.5 |
| 20260906050402 | 22 | 67 | 1.6 | 4.8 | 0.00 | 0.00 | 0.00 | 77 | 1021.5 |
| 20260906045902 | 22 | 75 | 1.6 | 3.2 | 0.00 | 0.00 | 0.00 | 77 | 1021.4 |
| 20260906045402 | 22 | 71 | 0.0 | 1.6 | 0.00 | 0.00 | 0.00 | 78 | 1021.4 |
| 20260906044902 | 22 | 54 | 1.6 | 3.2 | 0.00 | 0.00 | 0.00 | 78 | 1021.4 |
| 20260906044402 | 22 | 63 | 0.0 | 1.6 | 0.00 | 0.00 | 0.00 | 78 | 1021.3 |
| 20260906043902 | 22 | 61 | 1.6 | 3.2 | 0.00 | 0.00 | 0.00 | 78 | 1021.2 |
| 20260906043403 | 22 | 64 | 1.6 | 4.8 | 0.00 | 0.00 | 0.00 | 78 | 1021.3 |
| 20260906042903 | 22 | 46 | 0.0 | 1.6 | 0.00 | 0.00 | 0.00 | 78 | 1021.2 |
| 20260906042403 | 22 | 70 | 0.0 | 1.6 | 0.00 | 0.00 | 0.00 | 78 | 1021.2 |
| 20260906041903 | 22 | 11 | 1.6 | 3.2 | 0.00 | 0.00 | 0.00 | 77 | 1021.2 |
| 20260906041403 | 22 | 355 | 1.6 | 4.8 | 0.00 | 0.00 | 0.00 | 78 | 1021.1 |
| 20260906040903 | 22 | 316 | 0.0 | 1.6 | 0.00 | 0.00 | 0.00 | 78 | 1021.1 |
| 20260906040403 | 22 | 288 | 0.0 | 1.6 | 0.00 | 0.00 | 0.00 | 78 | 1021.0 |
| 20260906035903 | 22 | 286 | 0.0 | 1.6 | 0.00 | 0.00 | 0.00 | 78 | 1021.1 |
| 20260906035403 | 22 | 286 | 0.0 | 0.0 | 0.00 | 0.00 | 0.00 | 77 | 1021.1 |
| 20260906034903 | 22 | 298 | 0.0 | 0.0 | 0.00 | 0.00 | 0.00 | 77 | 1020.9 |
| 20260906034403 | 22 | 323 | 1.6 | 1.6 | 0.00 | 0.00 | 0.00 | 77 | 1020.9 |
| 20260906033903 | 23 | 86 | 0.0 | 1.6 | 0.00 | 0.00 | 0.00 | 77 | 1020.9 |
| 20260906033403 | 23 | 52 | 0.0 | 1.6 | 0.00 | 0.00 | 0.00 | 76 | 1020.9 |
| 20260906032903 | 23 | 46 | 0.0 | 1.6 | 0.00 | 0.00 | 0.00 | 76 | 1020.8 |
| 20260906032403 | 23 | 51 | 0.0 | 0.0 | 0.00 | 0.00 | 0.00 | 76 | 1020.8 |
| 20260906031904 | 23 | 60 | 0.0 | 1.6 | 0.00 | 0.00 | 0.00 | 76 | 1020.8 |
| 20260906031404 | 23 | 60 | 1.6 | 1.6 | 0.00 | 0.00 | 0.00 | 76 | 1020.9 |
| 20260906030904 | 23 | 59 | 0.0 | 3.2 | 0.00 | 0.00 | 0.00 | 76 | 1020.8 |
| 20260906030404 | 23 | 57 | 1.6 | 3.2 | 0.00 | 0.00 | 0.00 | 75 | 1020.8 |
| 20260906025904 | 23 | 49 | 0.0 | 1.6 | 0.00 | 0.00 | 0.00 | 76 | 1020.9 |
| 20260906025404 | 23 | 48 | 0.0 | 0.0 | 0.00 | 0.00 | 0.00 | 76 | 1020.8 |
| 20260906024904 | 23 | 52 | 1.6 | 1.6 | 0.00 | 0.00 | 0.00 | 76 | 1020.9 |
| 20260906024404 | 23 | 49 | 0.0 | 1.6 | 0.00 | 0.00 | 0.00 | 75 | 1020.9 |
| 20260906023904 | 23 | 68 | 0.0 | 0.0 | 0.00 | 0.00 | 0.00 | 75 | 1020.8 |
| 20260906023404 | 23 | 67 | 0.0 | 0.0 | 0.00 | 0.00 | 0.00 | 75 | 1020.8 |
| 20260906022904 | 23 | 68 | 1.6 | 3.2 | 0.00 | 0.00 | 0.00 | 73 | 1020.8 |
| 20260906022404 | 23 | 66 | 0.0 | 3.2 | 0.00 | 0.00 | 0.00 | 73 | 1020.7 |
| 20260906021905 | 23 | 66 | 0.0 | 4.8 | 0.00 | 0.00 | 0.00 | 73 | 1020.6 |
| 20260906021405 | 23 | 58 | 1.6 | 3.2 | 0.00 | 0.00 | 0.00 | 73 | 1020.7 |
| 20260906020905 | 23 | 61 | 1.6 | 4.8 | 0.00 | 0.00 | 0.00 | 73 | 1020.7 |
| 20260906020405 | 23 | 59 | 1.6 | 3.2 | 0.00 | 0.00 | 0.00 | 73 | 1020.7 |
| 20260906015905 | 23 | 17 | 0.0 | 3.2 | 0.00 | 0.00 | 0.00 | 73 | 1020.6 |
| 20260906015405 | 23 | 62 | 1.6 | 1.6 | 0.00 | 0.00 | 0.00 | 73 | 1020.5 |
| 20260906014905 | 23 | 29 | 1.6 | 4.8 | 0.00 | 0.00 | 0.00 | 73 | 1020.6 |
| 20260906014405 | 23 | 56 | 1.6 | 3.2 | 0.00 | 0.00 | 0.00 | 75 | 1020.4 |
| 20260906013905 | 24 | 20 | 0.0 | 1.6 | 0.00 | 0.00 | 0.00 | 75 | 1020.4 |
| 20260906013405 | 24 | 34 | 0.0 | 1.6 | 0.00 | 0.00 | 0.00 | 75 | 1020.4 |
| 20260906012905 | 24 | 63 | 1.6 | 1.6 | 0.00 | 0.00 | 0.00 | 75 | 1020.4 |
| 20260906012405 | 24 | 66 | 0.0 | 6.4 | 0.00 | 0.00 | 0.00 | 77 | 1020.4 |
| 20260906011906 | 24 | 309 | 0.0 | 1.6 | 0.00 | 0.00 | 0.00 | 77 | 1020.4 |
| 20260906011406 | 24 | 60 | 0.0 | 1.6 | 0.00 | 0.00 | 0.00 | 77 | 1020.4 |
| 20260906010906 | 24 | 54 | 1.6 | 3.2 | 0.00 | 0.00 | 0.00 | 76 | 1020.4 |
| 20260906010406 | 24 | 20 | 1.6 | 3.2 | 0.00 | 0.00 | 0.00 | 76 | 1020.3 |
| 20260906005936 | 24 | 55 | 1.6 | 1.6 | 0.00 | 0.00 | 0.00 | 78 | 1020.4 |
| 20260906005906 | 24 | 78 | 1.6 | 3.2 | 0.00 | 0.00 | 0.00 | 77 | 1020.4 |
| 20260906005406 | 24 | 55 | 1.6 | 1.6 | 0.00 | 0.00 | 0.00 | 78 | 1020.4 |
| 20260906004906 | 24 | 43 | 1.6 | 1.6 | 0.00 | 0.00 | 0.00 | 78 | 1020.5 |
| 20260906004406 | 24 | 58 | 3.2 | 4.8 | 0.00 | 0.00 | 0.00 | 78 | 1020.4 |
| 20260906003906 | 24 | 65 | 1.6 | 3.2 | 0.00 | 0.00 | 0.00 | 80 | 1020.4 |
| 20260906003406 | 24 | 68 | 4.8 | 8.0 | 0.00 | 0.00 | 0.00 | 81 | 1020.5 |
| 20260906002906 | 24 | 65 | 4.8 | 6.4 | 0.00 | 0.00 | 0.00 | 81 | 1020.3 |
| 20260906002407 | 24 | 65 | 3.2 | 4.8 | 0.00 | 0.00 | 0.00 | 82 | 1020.4 |
| 20260906001907 | 24 | 64 | 3.2 | 6.4 | 0.00 | 0.00 | 0.00 | 83 | 1020.4 |
| 20260906001407 | 24 | 68 | 1.6 | 3.2 | 0.00 | 0.00 | 0.00 | 86 | 1020.5 |
| 20260906000907 | 24 | 319 | 1.6 | 1.6 | 0.00 | 0.00 | 0.00 | 85 | 1020.5 |
| 20260906000407 | 24 | 29 | 0.0 | 1.6 | 0.00 | 0.00 | 0.00 | 85 | 1020.5 |
| 20260905235907 | 24 | 48 | 1.6 | 3.2 | 0.00 | 0.00 | 0.00 | 86 | 1020.5 |
| 20260905235407 | 24 | 64 | 3.2 | 4.8 | 0.00 | 0.00 | 0.00 | 86 | 1020.4 |
| 20260905234907 | 24 | 274 | 0.0 | 3.2 | 0.00 | 0.00 | 0.00 | 86 | 1020.4 |
| 20260905234407 | 24 | 70 | 1.6 | 4.8 | 0.00 | 0.00 | 0.00 | 86 | 1020.2 |
| 20260905233907 | 24 | 63 | 1.6 | 3.2 | 0.00 | 0.00 | 0.00 | 86 | 1020.3 |
| 20260905233407 | 24 | 46 | 1.6 | 1.6 | 0.00 | 0.00 | 0.00 | 86 | 1020.3 |
| 20260905232908 | 24 | 48 | 0.0 | 0.0 | 0.00 | 0.00 | 0.00 | 86 | 1020.3 |
| 20260905232407 | 25 | 51 | 0.0 | 1.6 | 0.00 | 0.00 | 0.00 | 86 | 1020.2 |
| 20260905231908 | 25 | 304 | 0.0 | 1.6 | 0.00 | 0.00 | 0.00 | 86 | 1020.2 |
| 20260905231408 | 25 | 309 | 0.0 | 1.6 | 0.00 | 0.00 | 0.00 | 86 | 1020.2 |
| 20260905230908 | 25 | 309 | 0.0 | 1.6 | 0.00 | 0.00 | 0.00 | 86 | 1020.3 |
| 20260905230408 | 25 | 40 | 0.0 | 3.2 | 0.00 | 0.00 | 0.00 | 85 | 1020.3 |
| 20260905225908 | 25 | 58 | 1.6 | 1.6 | 0.00 | 0.00 | 0.00 | 85 | 1020.2 |
| 20260905225408 | 25 | 66 | 0.0 | 4.8 | 0.00 | 0.00 | 0.00 | 86 | 1020.2 |
| 20260905224908 | 25 | 62 | 0.0 | 3.2 | 0.00 | 0.00 | 0.00 | 85 | 1020.1 |
| 20260905224408 | 25 | 331 | 0.0 | 4.8 | 0.00 | 0.00 | 0.00 | 86 | 1020.1 |
| 20260905223908 | 25 | 53 | 1.6 | 6.4 | 0.00 | 0.00 | 0.00 | 86 | 1020.1 |
| 20260905223408 | 25 | 55 | 1.6 | 3.2 | 0.00 | 0.00 | 0.00 | 86 | 1020.1 |
| 20260905222908 | 25 | 49 | 1.6 | 1.6 | 0.00 | 0.00 | 0.00 | 86 | 1020.2 |
| 20260905222409 | 25 | 57 | 1.6 | 3.2 | 0.00 | 0.00 | 0.00 | 88 | 1020.1 |
| 20260905221908 | 25 | 59 | 0.0 | 1.6 | 0.00 | 0.00 | 0.00 | 88 | 1020.1 |
| 20260905221409 | 25 | 66 | 0.0 | 0.0 | 0.00 | 0.00 | 0.00 | 90 | 1020.0 |
| 20260905220909 | 25 | 66 | 0.0 | 0.0 | 0.00 | 0.00 | 0.00 | 90 | 1019.9 |
| 20260905220409 | 25 | 66 | 1.6 | 1.6 | 0.00 | 0.00 | 0.00 | 90 | 1019.8 |
| 20260905215909 | 25 | 75 | 0.0 | 0.0 | 0.00 | 0.00 | 0.00 | 88 | 1019.8 |
| 20260905215410 | 25 | 75 | 0.0 | 1.6 | 0.00 | 0.00 | 0.00 | 88 | 1019.7 |
| 20260905214910 | 25 | 79 | 1.6 | 1.6 | 0.00 | 0.00 | 0.00 | 87 | 1019.6 |
| 20260905214410 | 25 | 71 | 1.6 | 4.8 | 0.00 | 0.00 | 0.00 | 88 | 1019.5 |
| 20260905213911 | 25 | 78 | 1.6 | 3.2 | 0.00 | 0.00 | 0.00 | 88 | 1019.5 |
| 20260905213411 | 25 | 37 | 1.6 | 4.8 | 0.00 | 0.00 | 0.00 | 88 | 1019.4 |
| 20260905212912 | 25 | 37 | 0.0 | 1.6 | 0.00 | 0.00 | 0.00 | 87 | 1019.4 |
| 20260905212412 | 25 | 37 | 0.0 | 1.6 | 0.00 | 0.00 | 0.00 | 87 | 1019.3 |
| 20260905211913 | 25 | 37 | 0.0 | 0.0 | 0.00 | 0.00 | 0.00 | 87 | 1019.3 |
| 20260905211417 | 25 | 37 | 1.6 | 3.2 | 0.00 | 0.00 | 0.00 | ||
| 20260905211413 | 25 | 37 | 1.6 | 3.2 | 0.00 | 0.00 | 0.00 | 87 | 1019.3 |
| 20260905210913 | 26 | 61 | 0.0 | 0.0 | 0.00 | 0.00 | 0.00 | 85 | 1019.2 |
| 20260905210414 | 26 | 61 | 0.0 | 0.0 | 0.00 | 0.00 | 0.00 | 85 | 1019.2 |
| 20260905205914 | 26 | 61 | 0.0 | 0.0 | 0.00 | 0.00 | 0.00 | 83 | 1019.1 |
| 20260905205415 | 26 | 61 | 0.0 | 0.0 | 0.00 | 0.00 | 0.00 | 85 | 1019.0 |
| 20260905204915 | 26 | 61 | 0.0 | 0.0 | 0.00 | 0.00 | 0.00 | 85 | 1019.1 |
| 20260905204537 | 26 | 61 | 0.0 | 0.0 | 0.00 | 0.00 | 0.00 | 83 | 1019.1 |
| 20260905204415 | 26 | 61 | 0.0 | 0.0 | 0.00 | 0.00 | 0.00 | 83 | 1019.1 |
| 20260905203916 | 26 | 61 | 0.0 | 0.0 | 0.00 | 0.00 | 0.00 | 81 | 1019.1 |
| 20260905203416 | 27 | 61 | 0.0 | 0.0 | 0.00 | 0.00 | 0.00 | 81 | 1019.2 |
| 20260905202917 | 27 | 61 | 0.0 | 1.6 | 0.00 | 0.00 | 0.00 | 80 | 1019.1 |
| 20260905202417 | 27 | 59 | 0.0 | 1.6 | 0.00 | 0.00 | 0.00 | 80 | 1019.1 |
| 20260905201918 | 27 | 59 | 0.0 | 1.6 | 0.00 | 0.00 | 0.00 | 80 | 1019.0 |
| 20260905201418 | 27 | 58 | 1.6 | 3.2 | 0.00 | 0.00 | 0.00 | 78 | 1019.0 |
| 20260905200918 | 27 | 58 | 0.0 | 1.6 | 0.00 | 0.00 | 0.00 | 78 | 1018.9 |
| 20260905200418 | 27 | 58 | 1.6 | 1.6 | 0.00 | 0.00 | 0.00 | 78 | 1018.9 |
| 20260905195919 | 27 | 57 | 0.0 | 1.6 | 0.00 | 0.00 | 0.00 | 78 | 1018.8 |
| 20260905195420 | 27 | 58 | 0.0 | 1.6 | 0.00 | 0.00 | 0.00 | 78 | 1018.8 |
| 20260905194920 | 27 | 57 | 3.2 | 4.8 | 0.00 | 0.00 | 0.00 | 77 | 1018.7 |
| 20260905194420 | 27 | 59 | 1.6 | 4.8 | 0.00 | 0.00 | 0.00 | 77 | 1018.6 |
| 20260905193921 | 27 | 59 | 3.2 | 4.8 | 0.00 | 0.00 | 0.00 | 77 | 1018.5 |
| 20260905193421 | 27 | 59 | 1.6 | 3.2 | 0.00 | 0.00 | 0.00 | 76 | 1018.4 |
| 20260905192922 | 28 | 60 | 1.6 | 3.2 | 0.00 | 0.00 | 0.00 | 76 | 1018.3 |
| 20260905192422 | 28 | 59 | 1.6 | 1.6 | 0.00 | 0.00 | 0.00 | 75 | 1018.3 |
| 20260905191922 | 28 | 62 | 1.6 | 3.2 | 0.00 | 0.00 | 0.00 | 75 | 1018.3 |
| 20260905191423 | 28 | 62 | 1.6 | 4.8 | 0.00 | 0.00 | 0.00 | 75 | 1018.2 |
| 20260905190923 | 28 | 60 | 1.6 | 3.2 | 0.00 | 0.00 | 0.00 | 75 | 1018.2 |
| 20260905190423 | 28 | 60 | 3.2 | 3.2 | 0.00 | 0.00 | 0.00 | 75 | 1018.1 |
| 20260905185924 | 28 | 60 | 1.6 | 3.2 | 0.00 | 0.00 | 0.00 | 75 | 1018.0 |
| 20260905185424 | 28 | 60 | 0.0 | 3.2 | 0.00 | 0.00 | 0.00 | 75 | 1017.9 |
| 20260905184925 | 28 | 60 | 0.0 | 1.6 | 0.00 | 0.00 | 0.00 | 75 | 1017.9 |
| 20260905184425 | 28 | 60 | 1.6 | 3.2 | 0.00 | 0.00 | 0.00 | 75 | 1017.8 |
| 20260905183925 | 28 | 60 | 0.0 | 3.2 | 0.00 | 0.00 | 0.00 | 73 | 1017.7 |
| 20260905183426 | 28 | 60 | 1.6 | 3.2 | 0.00 | 0.00 | 0.00 | 72 | 1017.5 |
| 20260905182926 | 28 | 63 | 3.2 | 6.4 | 0.00 | 0.00 | 0.00 | 73 | 1017.5 |
| 20260905182427 | 28 | 64 | 3.2 | 4.8 | 0.00 | 0.00 | 0.00 | 73 | 1017.4 |
| 20260905181928 | 28 | 61 | 3.2 | 4.8 | 0.00 | 0.00 | 0.00 | 72 | 1017.3 |
| 20260905181428 | 28 | 60 | 1.6 | 4.8 | 0.00 | 0.00 | 0.00 | 73 | 1017.2 |
| 20260905180928 | 29 | 71 | 3.2 | 6.4 | 0.00 | 0.00 | 0.00 | 72 | 1017.3 |
| 20260905180429 | 29 | 64 | 3.2 | 6.4 | 0.00 | 0.00 | 0.00 | 72 | 1017.3 |
| 20260905175929 | 29 | 64 | 1.6 | 3.2 | 0.00 | 0.00 | 0.00 | 71 | 1017.2 |
| 20260905175429 | 29 | 66 | 0.0 | 3.2 | 0.00 | 0.00 | 0.00 | 71 | 1017.1 |
| 20260905174929 | 29 | 65 | 1.6 | 4.8 | 0.00 | 0.00 | 0.00 | 71 | 1017.1 |
| 20260905174429 | 30 | 70 | 3.2 | 6.4 | 0.00 | 0.00 | 0.00 | 70 | 1017.0 |
| 20260905173929 | 30 | 65 | 0.0 | 3.2 | 0.00 | 0.00 | 0.00 | 69 | 1017.0 |
| 20260905173429 | 30 | 61 | 0.0 | 1.6 | 0.00 | 0.00 | 0.00 | 69 | 1016.8 |
| 20260905172928 | 30 | 59 | 1.6 | 1.6 | 0.00 | 0.00 | 0.00 | 69 | 1016.8 |
| 20260905172428 | 30 | 60 | 1.6 | 3.2 | 0.00 | 0.00 | 0.00 | 69 | 1016.8 |
| 20260905171928 | 30 | 59 | 1.6 | 3.2 | 0.00 | 0.00 | 0.00 | 67 | 1016.7 |
| 20260905171428 | 30 | 56 | 0.0 | 1.6 | 0.00 | 0.00 | 0.00 | 67 | 1016.6 |
| 20260905170928 | 30 | 42 | 1.6 | 4.8 | 0.00 | 0.00 | 0.00 | 66 | 1016.6 |
| 20260905170428 | 30 | 55 | 3.2 | 4.8 | 0.00 | 0.00 | 0.00 | 66 | 1016.6 |
| 20260905165928 | 30 | 59 | 3.2 | 4.8 | 0.00 | 0.00 | 0.00 | 66 | 1016.5 |
| 20260905165428 | 31 | 56 | 3.2 | 4.8 | 0.00 | 0.00 | 0.00 | 65 | 1016.5 |
| 20260905164928 | 31 | 160 | 0.0 | 1.6 | 0.00 | 0.00 | 0.00 | 64 | 1016.4 |
| 20260905164427 | 31 | 82 | 1.6 | 3.2 | 0.00 | 0.00 | 0.00 | 64 | 1016.5 |
| 20260905163928 | 30 | 96 | 3.2 | 4.8 | 0.00 | 0.00 | 0.00 | 64 | 1016.4 |
| 20260905163427 | 30 | 79 | 3.2 | 6.4 | 0.00 | 0.00 | 0.00 | 64 | 1016.3 |
| 20260905162928 | 30 | 80 | 1.6 | 4.8 | 0.00 | 0.00 | 0.00 | 61 | 1016.3 |
| 20260905162427 | 31 | 195 | 0.0 | 1.6 | 0.00 | 0.00 | 0.00 | 51 | 1016.3 |
| 20260905161927 | 32 | 198 | 0.0 | 1.6 | 0.00 | 0.00 | 0.00 | 43 | 1016.3 |
| 20260905161428 | 32 | 198 | 0.0 | 1.6 | 0.00 | 0.00 | 0.00 | 43 | 1016.3 |
| 20260905160927 | 32 | 198 | 0.0 | 1.6 | 0.00 | 0.00 | 0.00 | 41 | 1016.2 |
| 20260905160427 | 32 | 183 | 0.0 | 0.0 | 0.00 | 0.00 | 0.00 | 41 | 1016.3 |
| 20260905155928 | 32 | 220 | 0.0 | 1.6 | 0.00 | 0.00 | 0.00 | 43 | 1016.2 |
| 20260905155427 | 31 | 240 | 0.0 | 1.6 | 0.00 | 0.00 | 0.00 | 43 | 1016.3 |
| 20260905155132 | 32 | 240 | 0.0 | 1.6 | 0.00 | 0.00 | 0.00 | 42 | 1016.2 |
| 20260905154928 | 32 | 240 | 0.0 | 1.6 | 0.00 | 0.00 | 0.00 | 42 | 1016.2 |
| 20260905154427 | 32 | 270 | 1.6 | 3.2 | 0.00 | 0.00 | 0.00 | 42 | 1016.2 |
| 20260905153927 | 32 | 229 | 0.0 | 1.6 | 0.00 | 0.00 | 0.00 | 41 | 1016.2 |
| 20260905153427 | 33 | 214 | 0.0 | 1.6 | 0.00 | 0.00 | 0.00 | 42 | 1016.1 |
| 20260905152926 | 32 | 207 | 1.6 | 4.8 | 0.00 | 0.00 | 0.00 | 43 | 1016.2 |
| 20260905152426 | 31 | 203 | 0.0 | 0.0 | 0.00 | 0.00 | 0.00 | 44 | 1016.1 |
| 20260905151926 | 32 | 210 | 1.6 | 4.8 | 0.00 | 0.00 | 0.00 | 43 | 1016.1 |
| 20260905151426 | 32 | 253 | 3.2 | 4.8 | 0.00 | 0.00 | 0.00 | 45 | 1016.0 |
| 20260905150926 | 32 | 228 | 1.6 | 3.2 | 0.00 | 0.00 | 0.00 | 42 | 1016.1 |
| 20260905150426 | 33 | 173 | 0.0 | 1.6 | 0.00 | 0.00 | 0.00 | 42 | 1016.1 |
| 20260905145926 | 32 | 196 | 0.0 | 1.6 | 0.00 | 0.00 | 0.00 | 43 | 1016.1 |
| 20260905145426 | 32 | 206 | 1.6 | 1.6 | 0.00 | 0.00 | 0.00 | 44 | 1016.1 |
| 20260905144926 | 32 | 250 | 1.6 | 1.6 | 0.00 | 0.00 | 0.00 | 44 | 1016.1 |
| 20260905144426 | 32 | 235 | 3.2 | 6.4 | 0.00 | 0.00 | 0.00 | 45 | 1016.0 |
| 20260905143925 | 33 | 216 | 3.2 | 8.0 | 0.00 | 0.00 | 0.00 | 44 | 1016.1 |
| 20260905143425 | 33 | 263 | 0.0 | 1.6 | 0.00 | 0.00 | 0.00 | 45 | 1016.2 |
| 20260905142925 | 33 | 238 | 1.6 | 4.8 | 0.00 | 0.00 | 0.00 | 44 | 1016.1 |
| 20260905142425 | 32 | 308 | 1.6 | 3.2 | 0.00 | 0.00 | 0.00 | 43 | 1016.1 |
| 20260905141925 | 32 | 15 | 0.0 | 0.0 | 0.00 | 0.00 | 0.00 | 45 | 1016.1 |
| 20260905141425 | 31 | 15 | 1.6 | 4.8 | 0.00 | 0.00 | 0.00 | 46 | 1016.2 |
| 20260905140925 | 31 | 353 | 0.0 | 0.0 | 0.00 | 0.00 | 0.00 | 46 | 1016.1 |
| 20260905140425 | 31 | 282 | 0.0 | 4.8 | 0.00 | 0.00 | 0.00 | 48 | 1016.2 |
| 20260905135925 | 31 | 228 | 1.6 | 1.6 | 0.00 | 0.00 | 0.00 | 48 | 1016.3 |
| 20260905135425 | 32 | 295 | 3.2 | 4.8 | 0.00 | 0.00 | 0.00 | 46 | 1016.3 |
| 20260905134925 | 32 | 286 | 0.0 | 1.6 | 0.00 | 0.00 | 0.00 | 46 | 1016.3 |
| 20260905134424 | 32 | 262 | 1.6 | 3.2 | 0.00 | 0.00 | 0.00 | 50 | 1016.3 |
| 20260905133925 | 31 | 239 | 1.6 | 3.2 | 0.00 | 0.00 | 0.00 | 49 | 1016.4 |
| 20260905133424 | 31 | 184 | 1.6 | 4.8 | 0.00 | 0.00 | 0.00 | 48 | 1016.4 |
| 20260905132924 | 31 | 176 | 0.0 | 1.6 | 0.00 | 0.00 | 0.00 | 48 | 1016.5 |
| 20260905132424 | 30 | 241 | 3.2 | 8.0 | 0.00 | 0.00 | 0.00 | 51 | 1016.5 |
| 20260905131924 | 32 | 206 | 1.6 | 3.2 | 0.00 | 0.00 | 0.00 | 50 | 1016.5 |
| 20260905131424 | 32 | 158 | 0.0 | 1.6 | 0.00 | 0.00 | 0.00 | 49 | 1016.5 |
| 20260905130924 | 31 | 158 | 1.6 | 1.6 | 0.00 | 0.00 | 0.00 | 49 | 1016.6 |
| 20260905130424 | 31 | 251 | 1.6 | 1.6 | 0.00 | 0.00 | 0.00 | 49 | 1016.7 |
| 20260905125924 | 31 | 299 | 1.6 | 4.8 | 0.00 | 0.00 | 0.00 | 51 | 1016.7 |
| 20260905125424 | 31 | 174 | 0.0 | 3.2 | 0.00 | 0.00 | 0.00 | 49 | 1016.8 |
| 20260905124924 | 30 | 211 | 0.0 | 1.6 | 0.00 | 0.00 | 0.00 | 51 | 1016.8 |
| 20260905124424 | 30 | 224 | 1.6 | 1.6 | 0.00 | 0.00 | 0.00 | 51 | 1016.8 |
| 20260905123924 | 30 | 224 | 0.0 | 1.6 | 0.00 | 0.00 | 0.00 | 52 | 1016.8 |
| 20260905123423 | 30 | 219 | 3.2 | 4.8 | 0.00 | 0.00 | 0.00 | 53 | 1016.9 |
| 20260905122923 | 30 | 185 | 0.0 | 1.6 | 0.00 | 0.00 | 0.00 | 51 | 1017.0 |
| 20260905122423 | 30 | 225 | 1.6 | 6.4 | 0.00 | 0.00 | 0.00 | 52 | 1017.0 |
| 20260905121923 | 30 | 259 | 3.2 | 6.4 | 0.00 | 0.00 | 0.00 | 54 | 1017.1 |
| 20260905121423 | 30 | 286 | 3.2 | 6.4 | 0.00 | 0.00 | 0.00 | 56 | 1017.3 |
| 20260905120923 | 30 | 250 | 1.6 | 3.2 | 0.00 | 0.00 | 0.00 | 52 | 1017.3 |
| 20260905120423 | 30 | 50 | 1.6 | 4.8 | 0.00 | 0.00 | 0.00 | 56 | 1017.3 |
| 20260905115923 | 30 | 153 | 1.6 | 3.2 | 0.00 | 0.00 | 0.00 | 54 | 1017.3 |
| 20260905115423 | 30 | 128 | 0.0 | 3.2 | 0.00 | 0.00 | 0.00 | 54 | 1017.2 |
| 20260905114923 | 30 | 123 | 1.6 | 4.8 | 0.00 | 0.00 | 0.00 | 53 | 1017.2 |
| 20260905114423 | 30 | 264 | 0.0 | 3.2 | 0.00 | 0.00 | 0.00 | 54 | 1017.2 |
| 20260905113923 | 30 | 260 | 1.6 | 3.2 | 0.00 | 0.00 | 0.00 | 56 | 1017.3 |
| 20260905113422 | 30 | 185 | 1.6 | 3.2 | 0.00 | 0.00 | 0.00 | 54 | 1017.2 |
| 20260905112922 | 30 | 235 | 1.6 | 3.2 | 0.00 | 0.00 | 0.00 | 54 | 1017.3 |
| 20260905112422 | 30 | 46 | 0.0 | 1.6 | 0.00 | 0.00 | 0.00 | 57 | 1017.3 |
| 20260905111922 | 29 | 129 | 3.2 | 4.8 | 0.00 | 0.00 | 0.00 | 58 | 1017.4 |
| 20260905111422 | 28 | 80 | 1.6 | 3.2 | 0.00 | 0.00 | 0.00 | 58 | 1017.3 |
| 20260905110922 | 28 | 63 | 0.0 | 0.0 | 0.00 | 0.00 | 0.00 | 57 | 1017.3 |
| 20260905110422 | 28 | 65 | 1.6 | 1.6 | 0.00 | 0.00 | 0.00 | 60 | 1017.3 |
| 20260905105922 | 28 | 55 | 0.0 | 1.6 | 0.00 | 0.00 | 0.00 | 59 | 1017.4 |
| 20260905105422 | 28 | 47 | 1.6 | 3.2 | 0.00 | 0.00 | 0.00 | 63 | 1017.4 |
| 20260905104922 | 28 | 46 | 1.6 | 4.8 | 0.00 | 0.00 | 0.00 | 64 | 1017.4 |
| 20260905104421 | 29 | 323 | 0.0 | 1.6 | 0.00 | 0.00 | 0.00 | 63 | 1017.4 |
| 20260905103921 | 28 | 67 | 0.0 | 1.6 | 0.00 | 0.00 | 0.00 | 63 | 1017.4 |
| 20260905103421 | 28 | 296 | 1.6 | 3.2 | 0.00 | 0.00 | 0.00 | 64 | 1017.4 |
| 20260905102921 | 28 | 305 | 3.2 | 4.8 | 0.00 | 0.00 | 0.00 | 65 | 1017.7 |
| 20260905102421 | 28 | 47 | 1.6 | 4.8 | 0.00 | 0.00 | 0.00 | 65 | 1017.5 |
| 20260905101921 | 28 | 334 | 1.6 | 3.2 | 0.00 | 0.00 | 0.00 | 65 | 1017.5 |
| 20260905101421 | 29 | 348 | 3.2 | 4.8 | 0.00 | 0.00 | 0.00 | 65 | 1017.5 |
| 20260905100921 | 28 | 275 | 0.0 | 0.0 | 0.00 | 0.00 | 0.00 | 64 | 1017.6 |
| 20260905100421 | 28 | 275 | 0.0 | 1.6 | 0.00 | 0.00 | 0.00 | 66 | 1017.5 |
| 20260905095921 | 28 | 292 | 1.6 | 3.2 | 0.00 | 0.00 | 0.00 | 67 | 1017.5 |
| 20260905095421 | 28 | 307 | 0.0 | 3.2 | 0.00 | 0.00 | 0.00 | 67 | 1017.5 |
| 20260905094920 | 27 | 336 | 0.0 | 3.2 | 0.00 | 0.00 | 0.00 | 70 | 1017.5 |
| 20260905094420 | 27 | 319 | 0.0 | 1.6 | 0.00 | 0.00 | 0.00 | 69 | 1017.6 |
| 20260905093920 | 27 | 316 | 3.2 | 4.8 | 0.00 | 0.00 | 0.00 | 70 | 1017.7 |
| 20260905093420 | 27 | 316 | 1.6 | 3.2 | 0.00 | 0.00 | 0.00 | 69 | 1017.8 |
| 20260905092420 | 28 | 353 | 1.6 | 4.8 | 0.00 | 0.00 | 0.00 | 70 | 1017.5 |